Orbital Elements at Epoch 2459200.5 (2020-Dec-17.0) TDB
Reference: JPL 27 (heliocentric ecliptic J2000)
Element | Value | Uncertainty (1-sigma) | Units |
e | .1616145166943163 | 4.0538e-08 | |
a | 2.448137021505932 | 7.6931e-09 | au |
q | 2.052482539973788 | 9.8769e-08 | au |
i | 3.350367350077768 | 2.8733e-06 | deg |
node | 106.4045773036927 | 8.2892e-05 | deg |
peri | 313.9597871380253 | 8.3862e-05 | deg |
M | 193.3872899693511 | 1.2469e-05 | deg |
tp | 2459848.026634438059 (2022-Sep-25.52663444) | 4.9117e-05 | TDB |
period | 1399.110478155117 3.83 | 6.5949e-06 1.806e-08 | d yr |
n | .2573063425803945 | 1.2128e-09 | deg/d |
Q | 2.843791503038076 | 8.9364e-09 | au |
|
| | Orbit Determination Parameters
Additional Information
|